Location: Krakow
(50.0212°N, 19.9423°E)
Time: 01:57:55
(UTC+02:00)

NOAA 15 - Pass Details

Date: 15 September 2024
Orbit: 795 x 810 km, 98.6° (Epoch: 10 October)

Event Time Altitude Azimuth Distance (km) Brightness Sun altitude
Rises 20:50:24 0° 215° (SW) 3,292 7.9 -18.8°
Reaches altitude 10° 20:53:45 10° 238° (WSW) 2,366 7.4 -19.3°
Maximum altitude 20:56:45 15° 273° (W) 2,022 7.5 -19.7°
Drops below altitude 10° 20:59:45 10° 308° (NW) 2,375 8.2 -20.1°
Sets 21:03:08 0° 331° (NNW) 3,311 8.8 -20.6°
